DW6282 Weather Reports


Display with metric or nautical units.
time (UTC)temp
F
wind
direction
speed
MPH
gust
MPH
rain 1hr
in
rain 24hr
in
rain mn
in
humidity
%
barometer
mb
20260505230055 80 204 4.0 10.0 0.00 0.00 0.00 85 1006.1
20260505224547 80 188 5.0 11.0 0.00 0.00 0.00 84 1005.9
20260505223041 81 222 5.0 15.0 0.00 0.00 0.00 84 1006.1
20260505221541 81 125 4.0 9.0 0.00 0.00 0.00 85 1006.1
20260505220039 80 215 5.0 9.0 0.00 0.00 0.00 86 1006.2
20260505214537 80 200 3.0 10.0 0.00 0.00 0.00 86 1006.5
20260505213044 80 143 3.0 10.0 0.00 0.00 0.00 86 1006.5
20260505211535 81 145 4.0 11.0 0.00 0.00 0.00 85 1006.7
20260505210035 80 194 5.0 11.0 0.00 0.00 0.00 86 1006.8
20260505204531 80 205 3.0 9.0 0.00 0.00 0.00 86 1007.1
20260505203029 81 167 3.0 7.0 0.00 0.00 0.00 85 1007.2
20260505201528 81 188 3.0 10.0 0.00 0.00 0.00 85 1007.5
20260505200029 80 163 5.0 11.0 0.00 0.00 0.00 85 1007.6
20260505194528 81 178 4.0 11.0 0.00 0.00 0.00 85 1007.7
20260505193028 81 188 4.0 12.0 0.00 0.00 0.00 85 1007.7
20260505191527 81 214 2.0 8.0 0.00 0.00 0.00 85 1007.8
20260505190023 80 200 2.0 9.0 0.00 0.00 0.00 86 1007.8
20260505184523 79 155 2.0 10.0 0.00 0.00 0.00 86 1008.0
20260505183032 80 165 2.0 7.0 0.00 0.00 0.00 86 1008.2
20260505181522 79 207 3.0 9.0 0.00 0.00 0.00 87 1008.2
20260505180041 79 135 4.0 10.0 0.00 0.00 0.00 86 1008.2
20260505174521 80 191 3.0 9.0 0.00 0.00 0.00 85 1008.2
20260505173018 79 200 3.0 8.0 0.00 0.00 0.00 86 1008.4
20260505171516 79 183 3.0 9.0 0.00 0.00 0.00 86 1008.6
20260505170020 78 179 2.0 9.0 0.00 0.00 0.00 87 1008.6
20260505164515 79 212 3.0 9.0 0.00 0.00 0.00 86 1008.5
20260505163014 79 217 1.0 10.0 0.00 0.00 0.00 86 1008.6
20260505161513 79 217 4.0 11.0 0.00 0.00 0.00 85 1008.4
20260505153012 79 195 2.0 6.0 0.00 0.00 0.00 84 1008.2
20260505151510 80 191 1.0 10.0 0.00 0.00 0.00 84 1008.1
20260505124551 74 182 1.0 7.0 0.00 0.00 0.00 90 1007.7
20260505123048 74 198 1.0 7.0 0.00 0.00 0.00 90 1007.6
20260505121548 74 151 1.0 5.0 0.00 0.00 0.00 91 1007.7
20260505120050 73 162 1.0 7.0 0.00 0.00 0.00 91 1007.8
20260505114546 73 154 1.0 4.0 0.00 0.00 0.00 91 1007.5
20260505113051 73 190 2.0 5.0 0.00 0.00 0.00 91 1007.5
20260505111544 73 148 1.0 2.0 0.00 0.00 0.00 91 1007.7
20260505101558 73 158 1.0 5.0 0.00 0.00 0.00 90 1007.6
20260505100057 73 150 0.0 5.0 0.00 0.00 0.00 89 1007.5
20260505094538 73 215 0.0 4.0 0.00 0.00 0.00 89 1007.7
20260505093038 73 145 1.0 5.0 0.00 0.00 0.00 89 1007.8
20260505091536 73 175 0.0 3.0 0.00 0.00 0.00 89 1007.8
20260505090037 73 220 0.0 3.0 0.00 0.00 0.00 89 1007.9
20260505084537 73 198 0.0 5.0 0.00 0.00 0.00 89 1007.7
20260505083035 73 187 0.0 6.0 0.00 0.00 0.00 88 1007.7
20260505081534 73 134 2.0 6.0 0.00 0.00 0.00 88 1007.9
20260505080037 73 210 2.0 5.0 0.00 0.00 0.00 87 1008.1
20260505074531 73 173 2.0 7.0 0.00 0.00 0.00 87 1008.2
20260505073036 73 174 2.0 7.0 0.00 0.00 0.00 87 1008.2
20260505071527 73 159 2.0 6.0 0.00 0.00 0.00 87 1008.4
20260505070025 73 167 2.0 5.0 0.00 0.00 0.00 87 1008.6
20260505064522 72 193 0.0 6.0 0.00 0.00 0.00 87 1008.9
20260505063020 72 221 1.0 5.0 0.00 0.00 0.00 88 1009.2
20260505061524 72 185 1.0 4.0 0.00 0.00 0.00 87 1009.2
20260505060017 71 215 1.0 3.0 0.00 0.00 0.00 87 1009.1
20260505054517 71 143 1.0 4.0 0.00 0.00 0.00 87 1009.3
20260505053030 71 200 1.0 6.0 0.00 0.00 0.00 86 1009.3
20260505051532 72 210 1.0 7.0 0.00 0.00 0.00 86 1009.4
20260505041510 71 150 0.0 4.0 0.00 0.00 0.00 85 1009.8
20260505040009 71 202 1.0 3.0 0.00 0.00 0.00 85 1009.9
20260505034509 71 162 0.0 4.0 0.00 0.00 0.00 85 1010.2
20260505033008 71 199 2.0 6.0 0.00 0.00 0.00 84 1010.0
20260505031509 72 205 0.0 5.0 0.00 0.00 0.00 83 1010.0
20260505030007 72 199 1.0 4.0 0.00 0.00 0.00 83 1010.1
20260505024508 72 148 1.0 5.0 0.00 0.00 0.00 83 1010.1
20260505023011 72 155 1.0 6.0 0.00 0.00 0.00 82 1010.1
20260505021505 72 222 2.0 6.0 0.00 0.00 0.00 82 1009.9
20260505020005 73 190 2.0 6.0 0.00 0.00 0.00 81 1009.9
20260505014505 73 192 2.0 7.0 0.00 0.00 0.00 81 1009.7
20260505013004 73 180 1.0 7.0 0.00 0.00 0.00 80 1009.8
20260505011503 74 195 1.0 5.0 0.00 0.00 0.00 80 1009.7
20260505010005 74 194 2.0 5.0 0.00 0.00 0.00 80 1009.7
20260505004502 74 198 3.0 7.0 0.00 0.00 0.00 79 1009.5
20260505003003 75 211 3.0 10.0 0.00 0.00 0.00 78 1009.5
20260505001601 76 183 3.0 8.0 0.00 0.00 0.00 77 1009.5
20260505000100 77 103 3.0 9.0 0.00 0.00 0.00 76 1009.7
20260504234558 77 215 2.0 11.0 0.00 0.00 0.00 76 1009.7
20260504233057 78 203 3.0 11.0 0.00 0.00 0.00 75 1009.9
20260504231559 78 203 2.0 9.0 0.00 0.00 0.00 76 1010.0